STARLINK-34400

Last updated on Thu Jul 03 2025 00:02:07 GMT+0000 (Coordinated Universal Time)

1 64463U 25130AB 25183.58335648 -.00099689 00000+0 -68307-3 0 9994 2 64463 53.1568 179.7044 0000766 70.7348 82.6354 15.74235794 3517
UTC large
Height (km)
Speed (km/s)
/
Latitude / Longitude
Inclination (degrees)
Orbital Period (minutes)
Azimuth
Elevation
Range (km)
Doppler Factor

Next 0 passes for location: London (51.5072 / 0.1276)

Sorry there are no passes over London.